CDC8987 ZPPP-ZYHB

Flight info

Callsign CDC8987
Flight time N/A
Altitude 37100
Route DADOL9Y DADOL W144 ZAT/K0882S1190 W144 VEDPO/K0891S1160 W144 IGNAK/K0891S1130 W179 IPLOL/K0882S1190 W179 WFX W81 APIMI W275 NSH G212 SOTMU/K0891S1220 B339 HUR/K0893S1190 B334 TGO G212 RUSBO W203 PIGAM PIG08A
Aircraft A339/H-SADE1E2E3GHIJ3J5M1P2RWXY/LB2D1

Departure

Time 2026-05-07 10:42
Airport Kunming Changshui International Airport (ZPPP)

Arrival

Time N/A
Airport Harbin Taiping International Airport (ZYHB)
Time Latitude Longitude Altitude Speed Heading
2026-05-07 10:25 25.10127 102.92121 6922 ft 0 kts 218°
2026-05-07 10:33 25.10136 102.92129 6923 ft 2 kts 218°
2026-05-07 10:34 25.10148 102.92139 6924 ft 2 kts 218°
2026-05-07 10:34 25.10160 102.92149 6925 ft 2 kts 220°
2026-05-07 10:34 25.10167 102.92157 6926 ft 2 kts 236°
2026-05-07 10:34 25.10174 102.92172 6925 ft 2 kts 253°
2026-05-07 10:35 25.10177 102.92188 6924 ft 2 kts 270°
2026-05-07 10:35 25.10175 102.92203 6923 ft 2 kts 286°
2026-05-07 10:35 25.10172 102.92213 6922 ft 2 kts 295°
2026-05-07 10:35 25.10167 102.92223 6922 ft 0 kts 308°
2026-05-07 10:36 25.10164 102.92226 6922 ft 1 kts 309°
2026-05-07 10:36 25.10164 102.92227 6922 ft 0 kts 309°
2026-05-07 10:37 25.10164 102.92226 6922 ft 0 kts 309°
2026-05-07 10:37 25.10183 102.92201 6922 ft 5 kts 309°
2026-05-07 10:38 25.10209 102.92166 6922 ft 6 kts 308°
2026-05-07 10:38 25.10236 102.92125 6922 ft 7 kts 299°
2026-05-07 10:38 25.10244 102.92066 6922 ft 8 kts 273°
2026-05-07 10:38 25.10262 102.92009 6922 ft 7 kts 295°
2026-05-07 10:39 25.10253 102.91965 6922 ft 6 kts 229°
2026-05-07 10:39 25.10218 102.91933 6922 ft 6 kts 218°
2026-05-07 10:39 25.10192 102.91911 6922 ft 7 kts 218°
2026-05-07 10:39 25.10146 102.91859 6922 ft 7 kts 254°
2026-05-07 10:40 25.10166 102.91800 6922 ft 8 kts 312°
2026-05-07 10:40 25.10201 102.91749 6922 ft 8 kts 307°
2026-05-07 10:40 25.10236 102.91715 6922 ft 3 kts 353°
2026-05-07 10:40 25.10253 102.91721 6922 ft 0 kts 40°
2026-05-07 10:41 25.10272 102.91739 6922 ft 15 kts 39°
2026-05-07 10:41 25.10533 102.91966 6922 ft 79 kts 39°
2026-05-07 10:41 25.11114 102.92472 6922 ft 133 kts 38°
2026-05-07 10:41 25.11965 102.93215 6961 ft 175 kts 37°
2026-05-07 10:42 25.12923 102.94043 7459 ft 178 kts 37°
2026-05-07 10:42 25.13577 102.94590 7832 ft 180 kts 36°
2026-05-07 10:42 25.14914 102.95690 8644 ft 180 kts 36°
2026-05-07 10:42 25.15921 102.96518 9030 ft 184 kts 34°
2026-05-07 10:43 25.16635 102.97037 9187 ft 192 kts 30°
2026-05-07 10:43 25.18332 102.97910 9518 ft 210 kts 19°
2026-05-07 10:43 25.19294 102.98206 9685 ft 219 kts 12°
2026-05-07 10:43 25.21377 102.98426 10023 ft 239 kts 358°
2026-05-07 10:44 25.23059 102.98197 10292 ft 254 kts 347°
2026-05-07 10:44 25.24783 102.97553 10606 ft 268 kts 334°
2026-05-07 10:44 25.26396 102.96492 10768 ft 272 kts 321°
2026-05-07 10:44 25.27338 102.95577 10770 ft 272 kts 313°
2026-05-07 10:45 25.28889 102.93366 10842 ft 275 kts 303°
2026-05-07 10:45 25.29947 102.91634 11347 ft 279 kts 303°
2026-05-07 10:45 25.31027 102.89879 12094 ft 276 kts 302°
2026-05-07 10:45 25.32094 102.88165 12755 ft 275 kts 302°
2026-05-07 10:46 25.32824 102.87019 13162 ft 276 kts 304°
2026-05-07 10:46 25.34084 102.85441 13765 ft 280 kts 312°
2026-05-07 10:46 25.36127 102.83669 14514 ft 287 kts 324°
2026-05-07 10:46 25.37921 102.82640 15047 ft 293 kts 333°
2026-05-07 10:47 25.39872 102.81941 15566 ft 301 kts 342°
2026-05-07 10:47 25.41249 102.81672 15908 ft 305 kts 349°
2026-05-07 10:47 25.44118 102.81519 16450 ft 318 kts 354°
2026-05-07 10:47 25.46347 102.81484 16682 ft 332 kts 354°
2026-05-07 10:48 25.48660 102.81451 16905 ft 346 kts 355°
2026-05-07 10:48 25.51113 102.81409 17132 ft 360 kts 354°
2026-05-07 10:48 25.53637 102.81359 17360 ft 373 kts 354°
2026-05-07 10:48 25.55379 102.81323 17509 ft 382 kts 354°
2026-05-07 10:49 25.58972 102.81245 17803 ft 400 kts 354°
2026-05-07 10:49 25.60863 102.81203 17949 ft 408 kts 354°
2026-05-07 10:49 25.63716 102.81137 18158 ft 421 kts 354°
2026-05-07 10:49 25.66677 102.81071 18374 ft 433 kts 355°
2026-05-07 10:50 25.69679 102.81004 18764 ft 439 kts 354°
2026-05-07 10:50 25.72715 102.80936 19259 ft 441 kts 354°
2026-05-07 10:50 25.76804 102.81039 19883 ft 450 kts
2026-05-07 10:50 25.78836 102.81496 20185 ft 456 kts 12°
2026-05-07 10:51 25.82743 102.83324 20762 ft 467 kts 27°
2026-05-07 10:51 25.85504 102.85169 21164 ft 471 kts 28°
2026-05-07 10:51 25.88280 102.87097 21553 ft 475 kts 29°
2026-05-07 10:51 25.90123 102.88381 21813 ft 477 kts 29°
2026-05-07 10:52 25.92941 102.90335 22190 ft 480 kts 29°
2026-05-07 10:52 25.96691 102.92912 22663 ft 485 kts 28°
2026-05-07 10:52 25.99548 102.94862 23041 ft 488 kts 28°
2026-05-07 10:52 26.02470 102.96852 23429 ft 491 kts 28°
2026-05-07 10:53 26.05348 102.98812 23827 ft 493 kts 28°
2026-05-07 10:53 26.08255 103.00787 24209 ft 496 kts 28°
2026-05-07 10:53 26.11204 103.02792 24599 ft 499 kts 28°
2026-05-07 10:53 26.14156 103.04800 24993 ft 501 kts 28°
2026-05-07 10:54 26.16101 103.06123 25233 ft 503 kts 28°
2026-05-07 10:54 26.19047 103.08131 25598 ft 506 kts 28°
2026-05-07 10:54 26.23049 103.10860 26088 ft 509 kts 28°
2026-05-07 10:54 26.26028 103.12894 26439 ft 512 kts 28°